Regional Weather Roundup
Issued by NWS

Home | Current Version | Previous Version | Text Only | Print | Product List | Glossary Off
Versions: 1 2 3 4 5 6 7 8 9 10 11 12 13 14 15 16 17 18 19 20 21 22 23 24 25 26 27 28 29 30 31 32 33 34 35 36 37 38 39 40 41 42 43 44 45 46 47 48 49 50

000
ASUS43 KBIS 040402
RWRND

NORTH DAKOTA REGIONAL WEATHER ROUNDUP
NATIONAL WEATHER SERVICE BISMARCK ND
1100 PM CDT FRI JUL 03 2015

NOTE: "FAIR" INDICATES FEW OR NO CLOUDS BELOW 12,000 FEET WITH NO
SIGNIFICANT WEATHER AND/OR OBSTRUCTIONS TO VISIBILITY.


NDZ001>003-009>011-017-040500-
NORTHWEST NORTH DAKOTA

CITY           SKY/WX    TMP DP  RH WIND       PRES   REMARKS
WILLISTON      CLEAR     77  64  64 SE7       29.85R
MINOT          CLEAR     69  64  84 SE3       29.87S HAZE
$$

NDZ018>021-031>035-040>046-040500-
SOUTHWEST NORTH DAKOTA

CITY           SKY/WX    TMP DP  RH WIND       PRES   REMARKS
BISMARCK       CLOUDY    67  63  87 E3        29.91R FOG
DICKINSON      CLEAR     68  63  84 SE9       29.90R HAZE
GARRISON         N/A     70  65  84 S6        29.88S
HETTINGER ARPT CLEAR     69  60  73 SE7       29.94R HAZE
$$

NDZ004>008-012>016-024-026-027-054-040500-
NORTHEAST NORTH DAKOTA

CITY           SKY/WX    TMP DP  RH WIND       PRES   REMARKS
GRAND FORKS    CLOUDY    66  62  87 CALM      29.89S FOG
GRND FRKS AFB  CLEAR     62  60  93 SW1       29.90S
DEVILS LAKE    CLEAR     70  61  73 SE7       29.89S
$$

NDZ022-023-025-028>030-036>039-047>053-040500-
SOUTHEAST NORTH DAKOTA

CITY           SKY/WX    TMP DP  RH WIND       PRES   REMARKS
FARGO          CLEAR     67  62  84 CALM      29.90R HAZE
JAMESTOWN      CLOUDY    71  63  75 SE3       29.91R HAZE
$$




USA.gov is the U.S. government's official web portal to all federal, state and local government web resources and services.